Naples, Italy

7:03 PM CET on February 14, 2016 (GMT +0100)
Capodichino Mil

Weather History for LIRN - November, 2012

Change the Weather History Date:

Wednesday, November 21, 2012

  Actual Average Record
Temperature  
Mean Temperature 62 °F -  
Max Temperature 68 °F 58 °F 122 °F (2007)
Min Temperature 57 °F 42 °F 35 °F (2005)
Degree Days  
Heating Degree Days 2    
Growing Degree Days 12 (Base 50)    
Moisture  
Dew Point 54 °F    
Average Humidity 77    
Maximum Humidity 88    
Minimum Humidity 60    
Precipitation  
Precipitation 0.00 in 0.18 in - ()
Sea Level Pressure  
Sea Level Pressure 30.00 in    
Wind  
Wind Speed 6 mph ()    
Max Wind Speed 12 mph    
Max Gust Speed -    
Visibility 6.2 miles    
Events      
Averages and records for this station are not official NWS values.
T = Trace of Precipitation, MM = Missing Value Source: Averaged Metar Reports

Daily Weather History Graph

Daily Weather History Graph

Search for Another Location

Airport or City:

Trip Planner

Search our weather history database for the weather conditions in past years. The results will help you decide how hot, cold, wet, or windy it might be!

Date:

Astronomy

Nov. 21, 2012 Rise Set
Actual Time 6:57 AM CET 4:39 PM CET
Civil Twilight 6:27 AM CET 5:09 PM CET
Nautical Twilight 5:53 AM CET 5:43 PM CET
Astronomical Twilight 5:21 AM CET 6:16 PM CET
Moon 12:50 PM CET (11/21) No Moon Set
Length of Visible Light 10h 42m
Length of Day
9h 42m
First Quarter, 59% of the Moon is Illuminated
Nov 21
First Quarter
Nov 28
Full
Dec 6
Last Quarter
Dec 13
New
Dec 20
First Quarter

Hourly Weather History & Observations

Time (CET) Temp. Dew Point Humidity Pressure Visibility Wind Dir Wind Speed Gust Speed Precip Events Conditions
12:20 AM 57.2 °F 53.6 °F 88% 29.95 in 6.2 mi North 5.8 mph - N/A   Mostly Cloudy
12:50 AM 57.2 °F 51.8 °F 82% 29.92 in 6.2 mi North 5.8 mph - N/A   Mostly Cloudy
1:20 AM 59.0 °F 53.6 °F 82% 29.92 in 6.2 mi North 8.1 mph - N/A   Mostly Cloudy
1:50 AM 57.2 °F 53.6 °F 88% 29.95 in 6.2 mi North 8.1 mph - N/A   Mostly Cloudy
2:20 AM 59.0 °F 53.6 °F 82% 29.95 in 6.2 mi North 6.9 mph - N/A   Mostly Cloudy
2:50 AM 59.0 °F 53.6 °F 82% 29.95 in 6.2 mi NNW 5.8 mph - N/A   Mostly Cloudy
3:20 AM 59.0 °F 51.8 °F 77% 29.95 in 6.2 mi North 8.1 mph - N/A   Scattered Clouds
3:50 AM 59.0 °F 53.6 °F 82% 29.95 in 6.2 mi North 6.9 mph - N/A   Scattered Clouds
4:20 AM 59.0 °F 53.6 °F 82% 29.95 in 6.2 mi NNE 8.1 mph - N/A   Scattered Clouds
4:50 AM 59.0 °F 53.6 °F 82% 29.95 in 6.2 mi North 4.6 mph - N/A   Scattered Clouds
5:20 AM 59.0 °F 53.6 °F 82% 29.95 in 6.2 mi North 5.8 mph - N/A   Scattered Clouds
5:50 AM 59.0 °F 53.6 °F 82% 29.95 in 6.2 mi North 6.9 mph - N/A   Scattered Clouds
6:20 AM 59.0 °F 53.6 °F 82% 29.95 in 6.2 mi NNE 8.1 mph - N/A   Scattered Clouds
6:50 AM 59.0 °F 53.6 °F 82% 29.98 in 6.2 mi North 6.9 mph - N/A   Mostly Cloudy
7:20 AM 59.0 °F 53.6 °F 82% 29.98 in 6.2 mi North 6.9 mph - N/A   Mostly Cloudy
7:50 AM 59.0 °F 53.6 °F 82% 29.98 in 6.2 mi North 5.8 mph - N/A   Mostly Cloudy
8:20 AM 60.8 °F 53.6 °F 77% 29.98 in 6.2 mi North 4.6 mph - N/A   Mostly Cloudy
8:50 AM 60.8 °F 53.6 °F 77% 29.98 in 6.2 mi NNW 4.6 mph - N/A   Scattered Clouds
9:20 AM 60.8 °F 53.6 °F 77% 30.01 in 6.2 mi North 5.8 mph - N/A   Mostly Cloudy
9:50 AM 62.6 °F 53.6 °F 72% 30.01 in 6.2 mi North 5.8 mph - N/A   Mostly Cloudy
10:20 AM 64.4 °F 55.4 °F 73% 30.01 in 6.2 mi NNE 5.8 mph - N/A   Scattered Clouds
10:50 AM 64.4 °F 53.6 °F 68% 30.01 in 6.2 mi NE 5.8 mph - N/A   Scattered Clouds
11:20 AM 64.4 °F 53.6 °F 68% 30.01 in 6.2 mi NNE 6.9 mph - N/A   Mostly Cloudy
11:50 AM 64.4 °F 53.6 °F 68% 30.01 in 6.2 mi NE 6.9 mph - N/A   Mostly Cloudy
12:20 PM 66.2 °F 53.6 °F 64% 30.01 in 6.2 mi ENE 5.8 mph - N/A   Scattered Clouds
12:50 PM 66.2 °F 53.6 °F 64% 29.98 in 6.2 mi NE 5.8 mph - N/A   Partly Cloudy
1:20 PM 68.0 °F 53.6 °F 60% 29.98 in 6.2 mi NE 8.1 mph - N/A   Scattered Clouds
1:50 PM 68.0 °F 55.4 °F 64% 29.98 in 6.2 mi ENE 5.8 mph - N/A   Mostly Cloudy
2:20 PM 66.2 °F 55.4 °F 68% 30.01 in 6.2 mi NE 8.1 mph - N/A   Mostly Cloudy
2:50 PM 66.2 °F 55.4 °F 68% 30.01 in 6.2 mi NE 6.9 mph - N/A   Mostly Cloudy
3:20 PM 66.2 °F 55.4 °F 68% 30.01 in 6.2 mi Variable 3.5 mph - N/A   Mostly Cloudy
3:50 PM 64.4 °F 55.4 °F 73% 30.01 in 6.2 mi NNE 6.9 mph - N/A   Mostly Cloudy
4:20 PM 64.4 °F 55.4 °F 73% 30.01 in 6.2 mi NNE 6.9 mph - N/A   Mostly Cloudy
4:50 PM 64.4 °F 55.4 °F 73% 30.04 in 6.2 mi NNE 5.8 mph - N/A   Mostly Cloudy
5:20 PM 62.6 °F 55.4 °F 77% 30.04 in 6.2 mi NNE 4.6 mph - N/A   Mostly Cloudy
5:50 PM 62.6 °F 55.4 °F 77% 30.04 in 6.2 mi NE 4.6 mph - N/A   Mostly Cloudy
6:20 PM 62.6 °F 55.4 °F 77% 30.04 in 6.2 mi ENE 3.5 mph - N/A   Mostly Cloudy
6:50 PM 60.8 °F 53.6 °F 77% 30.04 in 6.2 mi NE 5.8 mph - N/A   Mostly Cloudy
7:20 PM 60.8 °F 53.6 °F 77% 30.06 in 6.2 mi NNE 3.5 mph - N/A   Scattered Clouds
7:50 PM 60.8 °F 53.6 °F 77% 30.06 in 6.2 mi NE 4.6 mph - N/A   Scattered Clouds
8:20 PM 60.8 °F 53.6 °F 77% 30.06 in 6.2 mi North 4.6 mph - N/A   Scattered Clouds
8:50 PM 60.8 °F 53.6 °F 77% 30.06 in - NNW 6.9 mph - N/A   Clear
9:20 PM 59.0 °F 53.6 °F 82% 30.06 in - North 5.8 mph - N/A   Clear
9:50 PM 60.8 °F 53.6 °F 77% 30.06 in - NNE 11.5 mph - N/A   Clear
10:20 PM 60.8 °F 53.6 °F 77% 30.09 in - North 9.2 mph - N/A   Clear
10:50 PM 59.0 °F 53.6 °F 82% 30.09 in - NNE 5.8 mph - N/A   Clear
11:20 PM 57.2 °F 51.8 °F 82% 30.09 in - NNE 4.6 mph - N/A   Clear
11:50 PM 57.2 °F 51.8 °F 82% 30.09 in - Variable 1.2 mph - N/A   Clear